COSMOS 2251 DEB, 34005

Orbit data source: Space-Track

COSMOS 2251 DEB, 34005 is space debris in LEO originally from a launch on Wed, 16 Jun 1993 UTC launched from the Plesetsk Missile And Space Complex (PKMTR). The debris from Iridium 33, an American commercial communications satellite, has been tracked extensively since its accidental collision with the defunct Russian satellite Cosmos 2251 in 2009. This event, occurring at high speed in low Earth orbit (LEO), generated thousands of pieces of space debris, significantly increasing the risk of further collisions. The Iridium 33 debris cloud has impacted space traffic management and orbital debris mitigation strategies, making it a subject of ongoing study in space situational awareness.

Loading next visibility...
Identifier
34005, 1993-036GQ
Orbit
LEO
Country
Flag of CISCIS
Related business
Manufacturer
Unknown
Mission
Spacecraft
Bus & Motor
Unknown
Mass
Unknown
Launch date (UTC)
1993-06-16 (33 years ago)
Launch vehicle
Unknown
Launch site
Plesetsk Missile And Space Complex (PKMTR)
Object type
Payload
Rocket body
Debris
Shape & HBR
Unknown shape, 0.2 m
Radar Cross Section
Medium (>0.1 m² and <1 m²)

Expand to show TLE details & history
Last TLE update: 13 hours ago

TLE from 13 hours ago
0 COSMOS 2251 DEB
1 34005U 93036GQ  26237.08198824  .00000190  00000-0  67884-4 0  9990
2 34005  74.0439 101.8073 0020188 162.2553 318.9107 14.40472956920556
Epoch: 2026-08-25T01:58Z
TLE epoch observation values (Epoch: 2026-08-25T01:58:03.783Z)
Latitude
55.59858°
Longitude
-105.60223°
Altitude
754.98 km
Speed
7.488 km/s
True Right ascension
17h 09m 04s
True Declination
55° 26' 17"
Sunlit
Object was in daylight at epoch
Visualization orbit readout
Latitude
Unknown
Longitude
Unknown
Altitude
Unknown
Speed
Unknown
Apparent Right ascension
Unknown
Apparent Declination
Unknown
Sunlit
N/A
Visualization observer readout
Local Sidereal Time
06:10:27
Azimuth
Unknown
Elevation
Unknown
Doppler factor
Unknown
Orbital elements
Apogee altitude
768.954 km
Perigee altitude
740.155 km
Semi-major axis
7,132.692 km
Eccentricity
0.00202
Inclination
74.0439°
RAAN
101.8073°
Arg. of periapsis
162.2553°
True anomaly
318.75837°
Mean anomaly
318.9107°
Eccentric anomaly
318.83456°
Mean motion
3.60299 °/min
Orbital period
99.92 mins
BSTAR
0.000067884

Documentation

Showing up to 5 results
|